Погода в Литовко

Россия / Хабаровский край     49°14′25″N   135°10′15″E
темп.,
°C
ветер,
м/с
пор.,
м/с
влажн.,
%
обл.,
%
осадки,
мм/ч
давл.,
гПа
погр.,
м
24 сентября, пт
пт2401:00+6сз11740 0.0 102411
04:00+6з22790 0.0 102515
07:00+5з11790 0.0 102610
10:00+13зюз12550 0.0 1027388
13:00+17юз33435 0.0 10251365
16:00+18зюз334390 0.0 10251316
19:00+12ююз226372 0.0 102521
22:00+10зюз226670 0.0 102627
25 сентября, сб
сб2501:00+10юз1168100 0.0 102514
04:00+10зюз1168100 0.0 102616
07:00+9юз1173100 0.0 102613
10:00+14юз125661 0.0 1027424
13:00+19зюз3446100 0.0 10251032
16:00+18зюз3449100 0.0 1025900
19:00+14юз2266100 0.0 102535
22:00+12юз2268100 0.0 102536
26 сентября, вс
вс2601:00+12з2265100 0.0 102427
04:00+10з116996 0.0 102411
07:00+9з11755 0.0 102411
10:00+15зюз12561 0.0 1024415
13:00+19зюз22466 0.0 10231166
16:00+20зюз33450 0.0 10211287
19:00+14ююз23675 0.0 102121
22:00+12юз22690 0.0 102015
27 сентября, пн
пн2701:00+11зюз22685 0.0 102015
04:00+9зюз11755 0.0 101913
07:00+8зюз11845 0.0 101914
10:00+15юз126197 0.0 1018380
13:00+19ююз3451100 0.0 1016952
16:00+19ююз345398 0.0 1015963
19:00+15ююв227059 0.0 101413
22:00+14ю228142 0.0 101324
28 сентября, вт
вт2801:00+14ю2496100 2.2 1013143
04:00+14ююз249699 2.3 1013135
07:00+14юз2396100 0.1 101385
10:00+18юз35785 0.1 1014510
13:00+21юз455149 0.0 10131307
16:00+21юз56430 0.0 10131361
19:00+16ю4980100 0.0 1013229
22:00+14ю2394100 0.0 101256